"2009-03-03 00:00:00",677142,5.47,109.7,0.82,0.058,15.29,107.1616,17.61,18.65,9.88,0,110.6,13.27,18.42,71.7
"2009-03-03 00:00:30",677143,5.596,110.6,1.247,0.077,15.37,107.1587,17.6,18.63,9.93,0,110.6,13.26,18.42,72.6
"2009-03-03 00:01:00",677144,5.544,111,0.655,0.095,15.41,107.1505,17.58,18.63,9.96,0,110.6,13.27,18.39,73.0
"2009-03-03 00:01:30",677145,5.644,112.6,1.259,0.093,15.47,107.1426,17.56,18.63,9.98,0,110.6,13.27,18.37,74.6
"2009-03-03 00:02:00",677146,5.772,114.7,0.608,0.076,15.32,107.128,17.52,18.6,9.99,0,110.6,13.27,18.34,76.7
"2009-03-03 00:02:30",677147,5.65,115,0.751,0.083,15.34,107.1275,17.52,18.6,10.01,0,110.6,13.27,18.34,77.0
"2009-03-03 00:03:00",677148,5.494,115.4,0.749,0.04,15.44,107.1278,17.52,18.59,10.03,0,110.6,13.27,18.34,77.4
"2009-03-03 00:03:30",677149,5.417,116,0.818,0.055,15.49,107.1278,17.52,18.56,10.07,0,110.6,13.27,18.34,78.0
"2009-03-03 00:04:00",677150,5.199,116.5,0.686,0.102,15.57,107.1216,17.51,18.57,10.11,0,110.6,13.27,18.32,78.5
"2009-03-03 00:04:30",677151,5.044,117.8,0.875,0.039,15.49,107.1005,17.45,18.53,10.09,0,110.6,13.27,18.27,79.8
"2009-03-03 00:05:00",677152,4.951,117.8,0.577,0.049,15.58,107.094,17.44,18.54,10.06,0,110.6,13.27,18.25,79.8
"2009-03-03 00:05:30",677153,5.015,116.3,0.544,0.047,15.71,107.0928,17.43,18.51,10.08,0,110.6,13.27,18.25,78.3
"2009-03-03 00:06:00",677154,5.05,115.9,0.64,0.062,15.77,107.094,17.44,18.5,10.1,0,110.6,13.27,18.25,77.9
"2009-03-03 00:06:30",677155,5.045,117.9,0.823,0.061,15.55,107.0929,17.43,18.49,10.11,0,110.6,13.27,18.25,79.9
"2009-03-03 00:07:00",677156,4.919,118.5,0.502,0.047,15.47,107.0808,17.4,18.47,10.12,0,110.6,13.27,18.22,80.5
"2009-03-03 00:07:30",677157,4.917,120.4,0.947,0.039,15.5,107.072,17.38,18.46,10.13,0,110.6,13.27,18.19,82.4
"2009-03-03 00:08:00",677158,4.823,121,0.711,0.038,15.51,107.0608,17.35,18.44,10.13,0,110.6,13.27,18.16,83.0
"2009-03-03 00:08:30",677159,4.766,121.8,0.433,0.039,15.58,107.0599,17.35,18.44,10.14,0,110.6,13.27,18.16,83.8
"2009-03-03 00:09:00",677160,4.738,119.4,1.207,0.055,15.54,107.0605,17.35,18.41,10.15,0,110.6,13.27,18.16,81.4
"2009-03-03 00:09:30",677161,4.775,118.6,0.744,0.056,15.55,107.0599,17.35,18.41,10.21,0,110.6,13.27,18.16,80.6
"2009-03-03 00:10:00",677162,4.929,116.8,0.546,0.041,15.51,107.0593,17.35,18.37,10.27,0,110.6,13.27,18.16,78.8
"2009-03-03 00:10:30",677163,4.96,116.2,0.532,0.071,15.54,107.0574,17.34,18.37,10.32,0,110.6,13.27,18.15,78.2
"2009-03-03 00:11:00",677164,5.117,115.8,0.745,0.057,15.49,107.047,17.32,18.36,10.35,0,110.6,13.26,18.13,77.8
"2009-03-03 00:11:30",677165,5.196,113.3,0.731,0.038,15.5,107.0343,17.28,18.36,10.39,0,110.6,13.26,18.10,75.3
"2009-03-03 00:12:00",677166,5.385,112.4,0.873,0.183,15.44,107.0267,17.26,18.35,10.41,0,110.6,13.26,18.08,74.4
"2009-03-03 00:12:30",677167,5.61,111.1,1.862,0.131,15.4,107.027,17.26,18.34,10.49,0,110.6,13.26,18.08,73.1
"2009-03-03 00:13:00",677168,5.702,112.5,0.812,0.101,15.41,107.0267,17.26,18.32,10.51,0,110.6,13.26,18.08,74.5
"2009-03-03 00:13:30",677169,5.682,112.9,0.738,0.064,15.37,107.027,17.26,18.31,10.53,0,110.6,13.26,18.08,74.9
"2009-03-03 00:14:00",677170,5.484,114.1,1.807,0.119,15.47,107.0253,17.26,18.3,10.58,0,110.6,13.26,18.07,76.1
"2009-03-03 00:14:30",677171,5.608,114.4,0.708,0.116,15.42,107.0163,17.24,18.28,10.61,0,110.6,13.26,18.05,76.4
"2009-03-03 00:15:00",677172,5.459,114.4,0.845,0.062,15.49,106.9961,17.19,18.27,10.6,0,110.6,13.26,18.00,76.4
"2009-03-03 00:15:30",677173,5.398,114.7,0.762,0.045,15.56,106.9932,17.18,18.27,10.6,0,110.6,13.26,17.99,76.7
"2009-03-03 00:16:00",677174,5.31,115.4,0.486,0.055,15.52,106.9929,17.18,18.25,10.61,0,110.6,13.27,17.99,77.4
"2009-03-03 00:16:30",677175,5.202,115.7,0.397,0.063,15.52,106.9932,17.18,18.25,10.61,0,110.6,13.27,17.99,77.7
"2009-03-03 00:17:00",677176,4.96,116,0.602,0.064,15.58,106.9915,17.17,18.22,10.55,0,110.6,13.27,17.99,78.0
"2009-03-03 00:17:30",677177,4.692,115.9,0.418,0.065,15.59,106.9876,17.16,18.21,10.49,0,110.6,13.27,17.98,77.9
"2009-03-03 00:18:00",677178,4.623,114.3,0.696,0.067,15.38,106.9834,17.15,18.2,10.47,0,110.6,13.27,17.96,76.3
"2009-03-03 00:18:30",677179,4.466,113.6,0.873,0.07,15.43,106.9763,17.13,18.2,10.49,0,110.6,13.27,17.95,75.6
"2009-03-03 00:19:00",677180,4.408,112.2,0.42,0.051,15.51,106.9701,17.12,18.18,10.51,0,110.6,13.27,17.93,74.2
"2009-03-03 00:19:30",677181,4.506,110.4,1.24,0.112,15.46,106.9696,17.12,18.18,10.55,0,110.6,13.27,17.93,72.4
"2009-03-03 00:20:00",677182,4.7,109,0.634,0.053,15.4,106.9713,17.12,18.16,10.64,0,110.6,13.27,17.93,71.0
"2009-03-03 00:20:30",677183,4.857,109.1,0.594,0.076,15.21,106.9724,17.12,18.16,10.75,0,110.6,13.27,17.94,71.1
"2009-03-03 00:21:00",677184,4.84,109,0.504,0.038,15.2,106.9738,17.13,18.16,10.8,0,110.6,13.27,17.94,71.0
"2009-03-03 00:21:30",677185,4.899,108,0.938,0.046,15.1,106.9747,17.13,18.16,10.87,0,110.6,13.27,17.94,70.0
"2009-03-03 00:22:00",677186,4.918,106.8,0.493,0.073,15.28,106.9727,17.13,18.14,10.89,0,110.6,13.27,17.94,68.8
"2009-03-03 00:22:30",677187,5.056,106.6,0.525,0.067,15.3,106.9657,17.11,18.15,10.95,0,110.6,13.27,17.92,68.6
"2009-03-03 00:23:00",677188,5.032,107.3,1.098,0.066,15.25,106.9603,17.09,18.15,10.98,0,110.6,13.27,17.91,69.3
"2009-03-03 00:23:30",677189,5.122,108,0.656,0.092,15.18,106.9595,17.09,18.15,11.02,0,110.6,13.27,17.90,70.0
"2009-03-03 00:24:00",677190,5.201,110.4,1.078,0.13,15.39,106.9595,17.09,18.15,11.07,0,110.6,13.27,17.90,72.4
"2009-03-03 00:24:30",677191,5.34,111.9,0.732,0.112,15.44,106.9595,17.09,18.14,11.16,0,110.6,13.27,17.90,73.9
"2009-03-03 00:25:00",677192,5.236,113.5,0.965,0.038,15.3,106.9592,17.09,18.14,11.22,0,110.6,13.27,17.90,75.5
"2009-03-03 00:25:30",677193,5.51,111.2,1.341,0.163,15.38,106.9431,17.05,18.11,11.25,0,110.6,13.27,17.86,73.2
"2009-03-03 00:26:00",677194,5.866,111.4,1.17,0.16,15.29,106.9282,17.01,18.1,11.39,0,110.6,13.27,17.82,73.4
"2009-03-03 00:26:30",677195,5.943,113.6,1.573,0.131,15.21,106.9257,17,18.09,11.49,0,110.6,13.27,17.82,75.6
"2009-03-03 00:27:00",677196,5.751,114.4,0.997,0.091,15.54,106.9054,16.95,18.08,11.37,0,110.6,13.27,17.76,76.4
"2009-03-03 00:27:30",677197,5.844,115.5,1.047,0.073,15.46,106.8919,16.92,18.05,11.31,0,110.6,13.27,17.73,77.5
"2009-03-03 00:28:00",677198,5.946,118.8,1.115,0.136,15.41,106.8829,16.9,18.03,11.21,0,110.6,13.27,17.71,80.8
"2009-03-03 00:28:30",677199,6.245,119.5,0.756,0.093,15.25,106.859,16.83,18,11.3,0,110.6,13.27,17.64,81.5
"2009-03-03 00:29:00",677200,6.092,119,1.05,0.154,15.43,106.8499,16.81,17.96,11.38,0,110.6,13.27,17.62,81.0
"2009-03-03 00:29:30",677201,6.35,121.8,2.348,0.14,15.39,106.8243,16.74,17.92,11.38,0,110.6,13.27,17.56,83.8
"2009-03-03 00:30:00",677202,6.432,124.3,1.484,0.15,15.57,106.8145,16.72,17.89,11.4,0,110.6,13.27,17.53,86.3
"2009-03-03 00:30:30",677203,5.981,123.5,1.385,0.265,15.68,106.7905,16.66,17.86,11.37,0,110.6,13.27,17.47,85.5
"2009-03-03 00:31:00",677204,5.506,120.3,1.181,0.107,15.72,106.7793,16.63,17.82,11.35,0,110.6,13.27,17.44,82.3
"2009-03-03 00:31:30",677205,5.378,120,0.958,0.095,15.75,106.7568,16.57,17.77,11.35,0,110.6,13.27,17.38,82.0
"2009-03-03 00:32:00",677206,5.476,121,1.019,0.117,15.85,106.7556,16.57,17.75,11.36,0,110.6,13.27,17.38,83.0
"2009-03-03 00:32:30",677207,5.379,121.4,1.718,0.141,15.9,106.7314,16.51,17.7,11.35,0,110.6,13.27,17.32,83.4
"2009-03-03 00:33:00",677208,5.272,121.6,1.516,0.173,15.91,106.723,16.49,17.67,11.36,0,110.6,13.27,17.29,83.6
"2009-03-03 00:33:30",677209,5.423,120.4,2.293,0.239,15.89,106.7213,16.48,17.64,11.41,0,110.6,13.27,17.29,82.4
"2009-03-03 00:34:00",677210,5.552,121.9,3.629,0.151,15.9,106.7044,16.44,17.6,11.39,0,110.6,13.28,17.25,83.9
"2009-03-03 00:34:30",677211,5.586,120.5,2.64,0.327,15.9,106.6892,16.4,17.59,11.41,0,110.6,13.28,17.21,82.5
"2009-03-03 00:35:00",677212,5.851,121.2,1.985,0.141,15.89,106.6892,16.4,17.55,11.39,0,110.6,13.28,17.21,83.2
"2009-03-03 00:35:30",677213,5.863,123.3,0.847,0.214,15.9,106.685,16.39,17.54,11.4,0,110.6,13.28,17.20,85.3
"2009-03-03 00:36:00",677214,5.864,122.6,1.416,0.104,15.92,106.6653,16.34,17.5,11.38,0,110.6,13.28,17.15,84.6
"2009-03-03 00:36:30",677215,5.988,122.7,1.496,0.169,15.91,106.6554,16.31,17.48,11.35,0,110.6,13.28,17.12,84.7
"2009-03-03 00:37:00",677216,5.74,124.1,1.529,0.154,15.97,106.6554,16.31,17.44,11.33,0,110.6,13.28,17.12,86.1
"2009-03-03 00:37:30",677217,5.677,124,1.459,0.106,15.93,106.6554,16.31,17.43,11.35,0,110.6,13.28,17.12,86.0
"2009-03-03 00:38:00",677218,5.702,123.7,2.019,0.249,16.07,106.6517,16.3,17.42,11.3,0,110.6,13.28,17.11,85.7
"2009-03-03 00:38:30",677219,5.604,124.8,2.333,0.143,16.06,106.6363,16.26,17.38,11.28,0,110.6,13.28,17.07,86.8
"2009-03-03 00:39:00",677220,5.573,128.7,1.6,0.254,15.95,106.6245,16.23,17.37,11.3,0,110.6,13.28,17.04,90.7
"2009-03-03 00:39:30",677221,5.703,126.5,1.274,0.154,15.85,106.6228,16.23,17.36,11.33,0,110.6,13.28,17.04,88.5
"2009-03-03 00:40:00",677222,5.447,125.5,0.848,0.073,15.88,106.6261,16.24,17.35,11.36,0,110.6,13.28,17.05,87.5
"2009-03-03 00:40:30",677223,5.461,126.1,0.923,0.321,15.9,106.6279,16.24,17.33,11.39,0,110.6,13.28,17.05,88.1
"2009-03-03 00:41:00",677224,5.664,125.7,2.004,0.249,15.78,106.6291,16.24,17.33,11.46,0,110.6,13.28,17.05,87.7
"2009-03-03 00:41:30",677225,5.875,126.4,1.899,0.205,15.75,106.6327,16.25,17.31,11.56,0,110.6,13.28,17.06,88.4
"2009-03-03 00:42:00",677226,5.446,124.5,2.374,0.173,15.93,106.6276,16.24,17.31,11.54,0,110.6,13.28,17.05,86.5
"2009-03-03 00:42:30",677227,5.528,125.7,1.583,0.245,15.83,106.6213,16.22,17.27,11.51,0,110.6,13.28,17.03,87.7
"2009-03-03 00:43:00",677228,5.53,126.7,2.045,0.186,15.81,106.6097,16.19,17.26,11.54,0,110.5,13.29,17.00,88.7
"2009-03-03 00:43:30",677229,5.826,124.8,1.518,0.227,15.78,106.613,16.2,17.25,11.52,0,110.5,13.29,17.01,86.8
"2009-03-03 00:44:00",677230,5.729,126.5,2.671,0.154,15.84,106.6161,16.21,17.23,11.52,0,110.5,13.29,17.02,88.5
"2009-03-03 00:44:30",677231,5.583,124.9,3.324,0.281,15.89,106.6157,16.21,17.22,11.5,0,110.5,13.28,17.02,86.9
"2009-03-03 00:45:00",677232,5.817,124.4,1.205,0.096,15.82,106.5977,16.16,17.21,11.5,0,110.5,13.28,16.97,86.4
"2009-03-03 00:45:30",677233,5.652,124.9,2.291,0.187,15.89,106.5897,16.14,17.2,11.5,0,110.5,13.28,16.95,86.9
"2009-03-03 00:46:00",677234,5.509,126.1,1.246,0.242,15.91,106.5901,16.14,17.19,11.51,0,110.5,13.28,16.95,88.1
"2009-03-03 00:46:30",677235,5.251,126,1.594,0.129,15.98,106.5901,16.14,17.17,11.52,0,110.5,13.28,16.95,88.0
"2009-03-03 00:47:00",677236,5.191,126.1,1.22,0.129,15.96,106.5895,16.14,17.15,11.5,0,110.5,13.28,16.95,88.1
"2009-03-03 00:47:30",677237,5.085,126.4,1.696,0.275,15.91,106.5844,16.13,17.15,11.5,0,110.5,13.28,16.94,88.4
"2009-03-03 00:48:00",677238,4.695,125.5,1.519,0.175,16,106.5777,16.11,17.13,11.48,0,110.5,13.28,16.92,87.5
"2009-03-03 00:48:30",677239,4.495,125.1,1.266,0.128,16.02,106.5633,16.08,17.11,11.49,0,110.5,13.28,16.88,87.1
"2009-03-03 00:49:00",677240,4.347,124.1,1.513,0.14,16.12,106.5565,16.06,17.1,11.48,0,110.5,13.29,16.87,86.1
"2009-03-03 00:49:30",677241,4.15,122.9,1.657,0.048,15.94,106.5563,16.06,17.1,11.47,0,110.5,13.29,16.87,84.9
"2009-03-03 00:50:00",677242,4.12,121.2,1.299,0.045,15.92,106.5563,16.06,17.09,11.45,0,110.5,13.29,16.87,83.2
"2009-03-03 00:50:30",677243,3.866,120,1.134,0.133,16.08,106.5563,16.06,17.08,11.43,0,110.5,13.3,16.87,82.0
"2009-03-03 00:51:00",677244,3.599,117.8,2.086,0.092,16.23,106.5563,16.06,17.09,11.4,0,110.5,13.3,16.87,79.8
"2009-03-03 00:51:30",677245,3.592,119.8,1.204,0.121,16.17,106.5563,16.06,17.06,11.38,0,110.5,13.3,16.87,81.8
"2009-03-03 00:52:00",677246,3.454,118.5,2.278,0.208,16.15,106.5563,16.06,17.07,11.37,0,110.5,13.3,16.87,80.5
"2009-03-03 00:52:30",677247,3.365,116.4,1.471,0.123,16.14,106.5563,16.06,17.05,11.33,0,110.5,13.3,16.87,78.4
"2009-03-03 00:53:00",677248,3.638,119,1.352,0.091,16.22,106.5563,16.06,17.05,11.35,0,110.5,13.3,16.87,81.0
"2009-03-03 00:53:30",677249,3.428,115.3,2.222,0.105,16.19,106.5563,16.06,17.05,11.36,0,110.5,13.3,16.87,77.3
"2009-03-03 00:54:00",677250,3.6,117.9,2.267,0.118,16.18,106.5563,16.06,17.05,11.35,0,110.5,13.3,16.87,79.9
"2009-03-03 00:54:30",677251,3.553,118.5,3.557,0.174,16.21,106.5563,16.06,17.05,11.34,0,110.5,13.3,16.87,80.5
"2009-03-03 00:55:00",677252,3.594,119,2.133,0.14,16.21,106.5563,16.06,17.04,11.34,0,110.5,13.3,16.87,81.0
"2009-03-03 00:55:30",677253,3.723,120.8,1.109,0.076,16.22,106.556,16.06,17.05,11.34,0,110.5,13.3,16.87,82.8
"2009-03-03 00:56:00",677254,3.856,121.7,1.248,0.063,16.13,106.5563,16.06,17.06,11.35,0,110.5,13.3,16.87,83.7
"2009-03-03 00:56:30",677255,3.875,121.1,1.504,0.148,16.1,106.556,16.06,17.04,11.35,0,110.5,13.3,16.87,83.1
"2009-03-03 00:57:00",677256,3.713,123.5,1.926,0.087,16.21,106.5569,16.06,17.06,11.35,0,110.5,13.3,16.87,85.5
"2009-03-03 00:57:30",677257,3.74,123.7,1.072,0.16,16.18,106.5547,16.05,17.05,11.34,0,110.5,13.3,16.86,85.7
"2009-03-03 00:58:00",677258,3.719,124.2,1.193,0.102,16.23,106.5578,16.06,17.06,11.33,0,110.5,13.3,16.87,86.2
"2009-03-03 00:58:30",677259,3.873,124.2,1.924,0.095,16.17,106.5547,16.05,17.04,11.33,0,110.5,13.31,16.86,86.2
"2009-03-03 00:59:00",677260,3.866,124.9,1.125,0.172,16.14,106.5569,16.06,17.03,11.31,0,110.5,13.31,16.87,86.9
"2009-03-03 00:59:30",677261,3.823,125.2,1.975,0.108,16.25,106.5554,16.06,17.05,11.31,0,110.5,13.31,16.86,87.2
"2009-03-03 01:00:00",677262,3.588,124.6,1.197,0.105,16.12,106.5589,16.06,17.05,11.31,0,110.5,13.31,16.87,86.6
"2009-03-03 01:00:30",677263,3.742,125.7,0.845,0.056,16.23,106.5551,16.06,17.05,11.3,0,110.5,13.31,16.86,87.7
"2009-03-03 01:01:00",677264,3.683,127.1,1.082,0.097,16.16,106.554,16.05,17.05,11.3,0,110.5,13.3,16.86,89.1
"2009-03-03 01:01:30",677265,3.662,128.6,1.732,0.18,16.14,106.5555,16.06,17.04,11.3,0,110.5,13.3,16.86,90.6
"2009-03-03 01:02:00",677266,3.959,128.2,0.588,0.035,16.19,106.5578,16.06,17.05,11.3,0,110.5,13.3,16.87,90.2
"2009-03-03 01:02:30",677267,3.977,128.5,0.677,0.073,16.18,106.557,16.06,17.04,11.29,0,110.5,13.3,16.87,90.5
"2009-03-03 01:03:00",677268,4.135,127.9,1.009,0.065,16.16,106.5579,16.06,17.06,11.28,0,110.5,13.3,16.87,89.9
"2009-03-03 01:03:30",677269,4.062,128.5,0.862,0.032,16.28,106.5585,16.06,17.05,11.26,0,110.5,13.3,16.87,90.5
"2009-03-03 01:04:00",677270,4.021,128.7,0.414,0.034,16.27,106.5585,16.06,17.05,11.25,0,110.5,13.3,16.87,90.7
"2009-03-03 01:04:30",677271,4.076,127.5,0.775,0.053,16.21,106.5585,16.06,17.05,11.24,0,110.5,13.3,16.87,89.5
"2009-03-03 01:05:00",677272,4.056,127.4,0.842,0.039,16.19,106.5585,16.06,17.05,11.25,0,110.5,13.3,16.87,89.4
"2009-03-03 01:05:30",677273,4.104,125.9,0.918,0.073,16,106.5585,16.06,17.04,11.22,0,110.5,13.3,16.87,87.9
"2009-03-03 01:06:00",677274,4.263,125.6,0.88,0.07,15.93,106.5585,16.06,17.05,11.26,0,110.5,13.3,16.87,87.6
"2009-03-03 01:06:30",677275,4.433,125.8,1.223,0.111,15.94,106.5585,16.06,17.04,11.3,0,110.5,13.31,16.87,87.8
"2009-03-03 01:07:00",677276,4.479,126.8,0.684,0.082,15.82,106.5585,16.06,17.05,11.34,0,110.5,13.31,16.87,88.8
"2009-03-03 01:07:30",677277,4.371,126.7,0.748,0.076,15.84,106.5585,16.06,17.03,11.36,0,110.5,13.31,16.87,88.7
"2009-03-03 01:08:00",677278,4.436,127.5,0.769,0.081,15.8,106.5585,16.06,17.04,11.35,0,110.5,13.31,16.87,89.5
"2009-03-03 01:08:30",677279,4.613,126.8,0.336,0.071,15.86,106.5582,16.06,17.04,11.3,0,110.5,13.31,16.87,88.8
"2009-03-03 01:09:00",677280,4.746,127.5,0.448,0.042,15.98,106.5554,16.06,17.03,11.27,0,110.4,13.31,16.86,89.5
"2009-03-03 01:09:30",677281,4.761,127.8,0.188,0.048,16.04,106.5498,16.04,17.05,11.27,0,110.5,13.31,16.85,89.8
"2009-03-03 01:10:00",677282,4.759,127.7,0.379,0.048,15.99,106.5424,16.02,17.04,11.27,0,110.5,13.31,16.83,89.7
"2009-03-03 01:10:30",677283,4.697,128.4,0.627,0.031,16.01,106.5278,15.98,17.02,11.27,0,110.4,13.31,16.79,90.4
"2009-03-03 01:11:00",677284,4.707,129.7,0.44,0.047,16.05,106.5247,15.98,17.01,11.27,0,110.4,13.31,16.78,91.7
"2009-03-03 01:11:30",677285,4.702,130.5,0.504,0.031,15.97,106.5247,15.98,17,11.27,0,110.4,13.31,16.78,92.5
"2009-03-03 01:12:00",677286,4.666,130.9,0.179,0.029,15.97,106.5247,15.98,17.01,11.26,0,110.5,13.31,16.78,92.9
"2009-03-03 01:12:30",677287,4.608,131.4,0.303,0.042,15.99,106.5247,15.98,16.99,11.26,0,110.5,13.32,16.78,93.4
"2009-03-03 01:13:00",677288,4.534,131.6,0.261,0.04,16,106.5244,15.98,16.98,11.26,0,110.5,13.32,16.78,93.6
"2009-03-03 01:13:30",677289,4.455,131.6,0.341,0.016,16.05,106.5224,15.97,16.98,11.28,0,110.5,13.32,16.78,93.6
"2009-03-03 01:14:00",677290,4.406,132,0.517,0.037,16.14,106.5165,15.96,16.98,11.28,0,110.5,13.32,16.76,94.0
"2009-03-03 01:14:30",677291,4.373,132.9,0.608,0.028,16.09,106.5038,15.92,16.97,11.29,0,110.4,13.32,16.73,94.9
"2009-03-03 01:15:00",677292,4.39,133.7,0.384,0.035,15.9,106.4914,15.89,16.97,11.29,0,110.4,13.32,16.70,95.7
"2009-03-03 01:15:30",677293,4.357,134,0.562,0.105,15.92,106.4912,15.89,16.95,11.29,0,110.5,13.32,16.70,96.0
"2009-03-03 01:16:00",677294,4.272,134.4,0.489,0.04,15.92,106.4909,15.89,16.94,11.29,0,110.5,13.32,16.70,96.4
"2009-03-03 01:16:30",677295,4.261,134.6,0.532,0.045,15.9,106.4909,15.89,16.94,11.29,0,110.5,13.32,16.70,96.6
"2009-03-03 01:17:00",677296,4.264,135.2,0.529,0.054,15.8,106.4912,15.89,16.94,11.28,0,110.4,13.32,16.70,97.2
"2009-03-03 01:17:30",677297,4.136,135.3,0.536,0.045,16.04,106.4909,15.89,16.94,11.28,0,110.5,13.32,16.70,97.3
"2009-03-03 01:18:00",677298,4.041,134.6,0.326,0.034,16.19,106.4906,15.89,16.92,11.3,0,110.4,13.32,16.70,96.6
"2009-03-03 01:18:30",677299,3.966,133.9,0.474,0.044,15.94,106.4889,15.89,16.92,11.29,0,110.4,13.32,16.69,95.9
"2009-03-03 01:19:00",677300,3.981,134.2,0.523,0.044,15.98,106.4842,15.87,16.9,11.28,0,110.4,13.32,16.68,96.2
"2009-03-03 01:19:30",677301,4.083,133.8,0.494,0.067,16.04,106.4754,15.85,16.91,11.29,0,110.4,13.32,16.66,95.8
"2009-03-03 01:20:00",677302,4.187,132.9,0.444,0.023,16.14,106.466,15.83,16.9,11.28,0,110.4,13.32,16.63,94.9
"2009-03-03 01:20:30",677303,4.125,133,0.477,0.005,16.04,106.4594,15.81,16.88,11.28,0,110.4,13.32,16.62,95.0
"2009-03-03 01:21:00",677304,4.14,132.4,0.468,0.026,15.96,106.4622,15.82,16.89,11.28,0,110.4,13.32,16.62,94.4
"2009-03-03 01:21:30",677305,4.154,131.9,0.603,0.046,15.99,106.4643,15.82,16.88,11.28,0,110.5,13.32,16.63,93.9
"2009-03-03 01:22:00",677306,4.073,131.4,0.483,0.03,15.87,106.4661,15.83,16.87,11.28,0,110.5,13.32,16.63,93.4
"2009-03-03 01:22:30",677307,4.017,132.6,0.626,0.04,15.83,106.4679,15.83,16.87,11.28,0,110.5,13.32,16.64,94.6
"2009-03-03 01:23:00",677308,3.86,132.2,0.51,0.056,15.84,106.4691,15.83,16.86,11.29,0,110.5,13.32,16.64,94.2
"2009-03-03 01:23:30",677309,3.768,132.7,0.539,0.042,15.99,106.4721,15.84,16.85,11.28,0,110.5,13.32,16.65,94.7
"2009-03-03 01:24:00",677310,3.775,132.4,0.447,0.04,15.93,106.4727,15.84,16.86,11.29,0,110.5,13.32,16.65,94.4
"2009-03-03 01:24:30",677311,3.685,132.7,0.05,0.033,16.09,106.4736,15.85,16.85,11.3,0,110.5,13.33,16.65,94.7
"2009-03-03 01:25:00",677312,3.644,132.2,0.509,0.005,16.22,106.4781,15.86,16.85,11.31,0,110.4,13.33,16.67,94.2
"2009-03-03 01:25:30",677313,3.646,132,0.502,0.014,16.24,106.4799,15.86,16.84,11.31,0,110.5,13.33,16.67,94.0
"2009-03-03 01:26:00",677314,3.639,131.8,0.426,0.021,16.25,106.4835,15.87,16.84,11.32,0,110.4,13.33,16.68,93.8
"2009-03-03 01:26:30",677315,3.646,132.2,0.528,0.005,16.23,106.4823,15.87,16.84,11.33,0,110.4,13.33,16.68,94.2
"2009-03-03 01:27:00",677316,3.715,131.5,0.263,0.058,16.04,106.4845,15.87,16.84,11.31,0,110.4,13.33,16.68,93.5
"2009-03-03 01:27:30",677317,3.706,132.1,0.717,0.051,16.05,106.4814,15.87,16.84,11.28,0,110.4,13.33,16.67,94.1
"2009-03-03 01:28:00",677318,3.709,132.5,0.483,0.031,15.97,106.4781,15.86,16.84,11.25,0,110.4,13.33,16.67,94.5
"2009-03-03 01:28:30",677319,3.734,133.7,0.924,0.065,15.99,106.4789,15.86,16.83,11.24,0,110.4,13.33,16.67,95.7
"2009-03-03 01:29:00",677320,3.72,135.2,0.53,0.034,15.98,106.4742,15.85,16.83,11.23,0,110.4,13.33,16.66,97.2
"2009-03-03 01:29:30",677321,3.666,136.2,0.745,0.04,15.92,106.4693,15.84,16.81,11.23,0,110.4,13.33,16.64,98.2
"2009-03-03 01:30:00",677322,3.638,137.3,0.357,0.021,15.87,106.4646,15.82,16.82,11.23,0,110.4,13.33,16.63,99.3
"2009-03-03 01:30:30",677323,3.597,137.1,0.348,0.035,15.85,106.4618,15.82,16.81,11.24,0,110.4,13.33,16.62,99.1
"2009-03-03 01:31:00",677324,3.599,138.3,0.643,0.037,15.94,106.4592,15.81,16.8,11.23,0,110.4,13.33,16.62,100.3
"2009-03-03 01:31:30",677325,3.57,139.7,0.493,0.047,16.12,106.4592,15.81,16.81,11.24,0,110.4,13.33,16.62,101.7
"2009-03-03 01:32:00",677326,3.467,139.5,0.556,0.038,16.2,106.4592,15.81,16.8,11.25,0,110.4,13.33,16.62,101.5
"2009-03-03 01:32:30",677327,3.413,140.5,0.594,0.039,16.25,106.4592,15.81,16.8,11.25,0,110.4,13.33,16.62,102.5
"2009-03-03 01:33:00",677328,3.417,141.1,0.489,0.034,16.25,106.4592,15.81,16.81,11.25,0,110.4,13.33,16.62,103.1
"2009-03-03 01:33:30",677329,3.417,142.9,0.802,0.03,16.18,106.4592,15.81,16.79,11.25,0,110.4,13.33,16.62,104.9
"2009-03-03 01:34:00",677330,3.34,144,0.522,0.054,16.08,106.4592,15.81,16.81,11.26,0,110.4,13.33,16.62,106.0
"2009-03-03 01:34:30",677331,3.296,144,0.205,0.028,16.03,106.4592,15.81,16.79,11.3,0,110.4,13.33,16.62,106.0
"2009-03-03 01:35:00",677332,3.315,144.6,0.213,0.034,16.06,106.4592,15.81,16.8,11.33,0,110.4,13.33,16.62,106.6
"2009-03-03 01:35:30",677333,3.268,144.6,0.498,0.037,16.05,106.4592,15.81,16.79,11.34,0,110.4,13.32,16.62,106.6
"2009-03-03 01:36:00",677334,3.201,144.1,0.472,0.056,16.03,106.4592,15.81,16.78,11.35,0,110.4,13.32,16.62,106.1
"2009-03-03 01:36:30",677335,3.177,143,0.94,0.027,16.21,106.4592,15.81,16.79,11.37,0,110.4,13.32,16.62,105.0
"2009-03-03 01:37:00",677336,3.164,141.7,0.352,0.026,16.33,106.4592,15.81,16.78,11.3,0,110.4,13.32,16.62,103.7
"2009-03-03 01:37:30",677337,3.164,141.2,0.476,0.016,16.44,106.4587,15.81,16.77,11.28,0,110.4,13.32,16.62,103.2
"2009-03-03 01:38:00",677338,3.206,140.7,0.41,0.029,16.49,106.457,15.8,16.78,11.26,0,110.4,13.33,16.61,102.7
"2009-03-03 01:38:30",677339,3.192,140.8,0.369,0.044,16.42,106.453,15.79,16.79,11.27,0,110.4,13.32,16.60,102.8
"2009-03-03 01:39:00",677340,3.15,138.8,0.7,0.051,16.07,106.4505,15.79,16.77,11.27,0,110.4,13.33,16.59,100.8
"2009-03-03 01:39:30",677341,3.185,140.7,0.247,0.045,16.38,106.4505,15.79,16.77,11.27,0,110.4,13.33,16.59,102.7
"2009-03-03 01:40:00",677342,3.084,141,0.392,0.019,16.11,106.4485,15.78,16.77,11.27,0,110.4,13.33,16.59,103.0
"2009-03-03 01:40:30",677343,3.064,141.7,0.558,0.028,16.13,106.4468,15.78,16.77,11.31,0,110.4,13.33,16.58,103.7
"2009-03-03 01:41:00",677344,3.157,143.2,0.938,0.063,16.33,106.4466,15.78,16.78,11.36,0,110.4,13.33,16.58,105.2
"2009-03-03 01:41:30",677345,3.181,144.5,0.326,0.028,16.47,106.4471,15.78,16.77,11.38,0,110.4,13.33,16.59,106.5
"2009-03-03 01:42:00",677346,3.161,144.5,0.301,0.013,16.54,106.4463,15.78,16.77,11.4,0,110.4,13.33,16.58,106.5
"2009-03-03 01:42:30",677347,3.078,145.2,0.497,0.02,16.51,106.4449,15.77,16.77,11.41,0,110.4,13.33,16.58,107.2
"2009-03-03 01:43:00",677348,3.157,145.5,0.396,0.019,16.51,106.4437,15.77,16.76,11.37,0,110.4,13.33,16.58,107.5
"2009-03-03 01:43:30",677349,3.152,144.7,0.545,0.022,16.54,106.4415,15.76,16.76,11.37,0,110.4,13.33,16.57,106.7
"2009-03-03 01:44:00",677350,3.122,144.5,0.522,0.036,16.54,106.4401,15.76,16.77,11.36,0,110.4,13.33,16.57,106.5
"2009-03-03 01:44:30",677351,3.064,144.3,0.617,0.031,16.43,106.4389,15.76,16.76,11.37,0,110.4,13.33,16.56,106.3
"2009-03-03 01:45:00",677352,3.013,144.4,0.468,0.042,16.27,106.4401,15.76,16.76,11.36,0,110.4,13.33,16.57,106.4
"2009-03-03 01:45:30",677353,3.066,144.9,0.476,0.043,16.48,106.437,15.75,16.76,11.37,0,110.4,13.33,16.56,106.9
"2009-03-03 01:46:00",677354,3.105,144.9,0.428,0.04,16.51,106.4344,15.75,16.76,11.37,0,110.4,13.34,16.55,106.9
"2009-03-03 01:46:30",677355,3.162,146.2,0.613,0.024,16.39,106.4311,15.74,16.76,11.38,0,110.4,13.34,16.54,108.2
"2009-03-03 01:47:00",677356,3.149,146.4,0.479,0.025,16.46,106.4282,15.73,16.75,11.38,0,110.4,13.34,16.54,108.4
"2009-03-03 01:47:30",677357,3.138,147.6,0.531,0.039,16.42,106.428,15.73,16.76,11.37,0,110.4,13.34,16.54,109.6
"2009-03-03 01:48:00",677358,3.051,146.9,0.444,0.033,16.48,106.4257,15.72,16.76,11.33,0,110.4,13.34,16.53,108.9
"2009-03-03 01:48:30",677359,2.876,146.6,0.57,0.058,16.12,106.426,15.72,16.76,11.29,0,110.4,13.34,16.53,108.6